GW2661 Weather Reports


time (UTC)temp
F
wind
direction
speed
knots
gust
knots
rain 1hr
in
rain 24hr
in
rain mn
in
humidity
%
barometer
mb
20260507074433 52 345 0.0 1.7 0.00 0.00 0.00 91 1020.1
20260507073932 53 318 1.7 2.6 0.00 0.00 0.00 91 1019.8
20260507073428 53 354 1.7 2.6 0.00 0.00 0.00 91 1019.6
20260507072925 53 316 1.7 2.6 0.00 0.00 0.00 91 1019.8
20260507072422 53 296 0.9 1.7 0.00 0.00 0.00 91 1020.0
20260507071920 53 347 1.7 2.6 0.00 0.00 0.00 90 1019.8
20260507071416 53 284 2.6 4.3 0.00 0.00 0.00 90 1019.7
20260507070913 53 346 0.9 2.6 0.00 0.00 0.00 90 1019.8
20260507070410 53 324 0.0 2.6 0.00 0.00 0.00 90 1019.7
20260507065907 53 304 2.6 4.3 0.00 0.00 0.00 90 1019.7
20260507065404 53 335 0.9 4.3 0.00 0.00 0.00 90 1019.7
20260507064900 53 347 1.7 4.3 0.00 0.00 0.00 90 1019.7
20260507064359 53 298 2.6 4.3 0.00 0.00 0.00 90 1019.5
20260507063856 53 316 2.6 6.1 0.00 0.00 0.00 90 1019.7
20260507063353 53 336 2.6 5.2 0.00 0.00 0.00 90 1019.7
20260507062850 53 330 1.7 1.7 0.00 0.00 0.00 90 1019.5
20260507062347 53 323 2.6 2.6 0.00 0.00 0.00 90 1019.8
20260507061845 53 335 0.9 1.7 0.00 0.00 0.00 90 1019.7
20260507061343 54 300 2.6 5.2 0.00 0.00 0.00 90 1019.6
20260507060841 54 320 2.6 2.6 0.00 0.00 0.00 90 1019.8
20260507060337 54 303 2.6 6.1 0.00 0.00 0.00 90 1019.8
20260507055834 54 310 2.6 6.1 0.00 0.00 0.00 90 1019.8
20260507055329 54 326 1.7 5.2 0.00 0.00 0.00 89 1019.8
20260507054826 54 281 2.6 5.2 0.00 0.00 0.00 89 1019.6
20260507054322 54 351 4.3 6.1 0.00 0.00 0.00 89 1019.7
20260507053820 54 297 0.0 5.2 0.00 0.00 0.00 89 1019.5
20260507053317 54 298 0.0 4.3 0.00 0.00 0.00 88 1019.5
20260507052816 54 271 2.6 5.2 0.00 0.00 0.00 88 1019.4
20260507052312 55 291 4.3 5.2 0.00 0.00 0.00 88 1019.7
20260507051810 55 284 4.3 5.2 0.00 0.00 0.00 88 1019.5
20260507051307 55 310 3.5 5.2 0.00 0.00 0.00 88 1019.8
20260507050804 55 313 3.5 6.1 0.00 0.00 0.00 88 1019.4
20260507050300 55 293 2.6 4.3 0.00 0.00 0.00 87 1019.6
20260507045757 55 300 2.6 4.3 0.00 0.00 0.00 87 1019.7
20260507045253 55 326 1.7 7.8 0.00 0.00 0.00 87 1019.7
20260507044751 55 288 2.6 6.1 0.00 0.00 0.00 87 1019.6
20260507044247 55 299 4.3 6.1 0.00 0.00 0.00 87 1019.8
20260507043743 55 324 3.5 7.0 0.00 0.00 0.00 87 1019.5
20260507043240 55 347 1.7 4.3 0.00 0.00 0.00 86 1019.4
20260507042737 55 266 2.6 6.1 0.00 0.00 0.00 86 1019.4
20260507042232 55 307 2.6 2.6 0.00 0.00 0.00 86 1019.4
20260507041730 55 340 2.6 4.3 0.00 0.00 0.00 87 1019.5
20260507041226 55 334 2.6 5.2 0.00 0.00 0.00 87 1019.5
20260507040723 55 289 3.5 7.0 0.00 0.00 0.00 87 1019.5
20260507040219 55 258 5.2 12.2 0.00 0.00 0.00 87 1019.6
20260507035715 55 317 5.2 13.0 0.00 0.00 0.00 86 1019.5
20260507035211 55 317 4.3 9.6 0.00 0.00 0.00 86 1019.4
20260507034708 55 295 6.1 7.8 0.00 0.00 0.00 86 1019.4
20260507034205 55 278 3.5 8.7 0.00 0.00 0.00 86 1019.5
20260507033704 56 305 6.1 8.7 0.00 0.00 0.00 86 1019.5
20260507033201 56 275 6.1 11.3 0.00 0.00 0.00 85 1019.2
20260507032658 56 274 4.3 6.1 0.00 0.00 0.00 85 1019.5
20260507032153 56 0 2.6 5.2 0.00 0.00 0.00 85 1019.3
20260507031651 56 290 2.6 7.8 0.00 0.00 0.00 85 1019.3
20260507031147 56 287 1.7 4.3 0.00 0.00 0.00 85 1019.0
20260507030644 56 281 5.2 9.6 0.00 0.00 0.00 85 1018.9
20260507030142 57 313 2.6 5.2 0.00 0.00 0.00 85 1019.3
20260507025639 57 295 2.6 12.2 0.00 0.00 0.00 85 1019.2
20260507025136 57 349 4.3 7.8 0.00 0.00 0.00 85 1019.3
20260507024634 57 333 1.7 4.3 0.00 0.00 0.00 85 1019.4
20260507024131 57 283 2.6 9.6 0.00 0.00 0.00 85 1019.5
20260507023626 57 327 4.3 13.9 0.00 0.00 0.00 85 1019.3
20260507023124 59 327 6.1 7.0 0.00 0.00 0.00 84 1019.1
20260507022621 59 278 6.1 7.8 0.00 0.00 0.00 84 1019.3
20260507022116 59 321 6.1 12.2 0.00 0.00 0.00 84 1019.1
20260507021613 59 274 3.5 11.3 0.00 0.00 0.00 84 1018.8
20260507021108 59 258 7.8 13.9 0.00 0.00 0.00 84 1018.8
20260507020607 60 266 5.2 13.0 0.00 0.00 0.00 83 1018.8
20260507015602 61 313 2.6 13.0 0.00 0.00 0.00 82 1018.9
20260507015058 61 0 2.6 13.0 0.00 0.00 0.00 82 1018.6
20260507014555 62 265 5.2 12.2 0.00 0.00 0.00 80 1018.8
20260507014050 63 244 7.0 17.4 0.00 0.00 0.00 79 1018.7
20260507013548 63 294 4.3 13.9 0.00 0.00 0.00 79 1018.6
20260507013045 64 257 4.3 13.9 0.00 0.00 0.00 77 1018.7
20260507012542 64 264 7.8 13.0 0.00 0.00 0.00 76 1018.7
20260507012038 65 307 11.3 15.6 0.00 0.00 0.00 76 1018.9
20260507011536 65 275 7.8 12.2 0.00 0.00 0.00 76 1018.9
20260507011032 67 275 5.2 11.3 0.00 0.00 0.00 73 1018.7
20260507010526 68 29 1.7 9.6 0.00 0.00 0.00 72 1018.7
20260507010023 68 306 4.3 6.1 0.00 0.00 0.00 72 1018.6
20260507005520 69 262 4.3 5.2 0.00 0.00 0.00 70 1018.7
20260507005017 70 323 1.7 6.1 0.00 0.00 0.00 69 1018.7
20260507004514 69 291 6.1 7.0 0.00 0.00 0.00 71 1018.6
20260507004011 69 329 4.3 11.3 0.00 0.00 0.00 71 1018.6
20260507003506 69 307 0.9 7.0 0.00 0.00 0.00 71 1018.7
20260507003001 70 357 3.5 9.6 0.00 0.00 0.00 71 1018.6
20260507002458 70 288 2.6 7.8 0.00 0.00 0.00 70 1018.6
20260507001955 71 335 4.3 7.8 0.00 0.00 0.00 70 1018.8
20260507001451 71 286 7.8 9.6 0.00 0.00 0.00 71 1018.6
20260507000949 72 323 3.5 8.7 0.00 0.00 0.00 70 1018.4
20260507000445 74 282 5.2 9.6 0.00 0.00 0.00 67 1018.7
20260506235940 74 302 6.1 8.7 0.00 0.00 0.00 65 1018.7
20260506235438 71 302 4.3 7.8 0.00 0.00 0.00 68 1018.4
20260506234933 71 349 3.5 11.3 0.00 0.00 0.00 69 1018.6
20260506234431 71 301 7.0 11.3 0.00 0.00 0.00 68 1018.7
20260506233929 73 272 6.1 8.7 0.00 0.00 0.00 67 1018.8
20260506233425 74 194 4.3 11.3 0.00 0.00 0.00 66 1018.7
20260506232921 77 1 0.9 2.6 0.00 0.00 0.00 62 1018.6
20260506232418 73 312 2.6 8.7 0.00 0.00 0.00 67 1018.5
20260506231914 76 296 1.7 7.8 0.00 0.00 0.00 64 1018.6
20260506231411 74 316 4.3 7.8 0.00 0.00 0.00 68 1018.7
20260506230909 76 213 1.7 6.1 0.00 0.00 0.00 65 1018.7
20260506230405 77 238 6.1 7.8 0.00 0.00 0.00 65 1018.5
20260506225901 76 345 0.0 1.7 0.00 0.00 0.00 61 1018.9
20260506225359 72 103 4.3 5.2 0.00 0.00 0.00 67 1018.8
20260506224855 71 65 1.7 4.3 0.00 0.00 0.00 68 1018.9
20260506224353 73 29 0.9 4.3 0.00 0.00 0.00 65 1018.9
20260506223849 73 320 0.0 0.0 0.00 0.00 0.00 65 1018.9
20260506223344 74 95 0.9 5.2 0.00 0.00 0.00 65 1019.0
20260506222842 73 40 3.5 4.3 0.00 0.00 0.00 65 1018.8
20260506222337 73 207 5.2 6.1 0.00 0.00 0.00 66 1018.8
20260506221835 73 136 4.3 6.1 0.00 0.00 0.00 66 1019.1
20260506221333 73 78 0.0 4.3 0.00 0.00 0.00 64 1019.1
20260506220830 73 10 0.0 2.6 0.00 0.00 0.00 64 1019.3
20260506220325 73 169 4.3 6.1 0.00 0.00 0.00 65 1019.4
20260506215822 73 121 2.6 5.2 0.00 0.00 0.00 63 1019.3
20260506215318 74 74 1.7 4.3 0.00 0.00 0.00 62 1019.4
20260506214814 74 144 3.5 7.8 0.00 0.00 0.00 64 1019.4
20260506214311 74 39 1.7 4.3 0.00 0.00 0.00 62 1019.6
20260506213810 72 93 0.9 8.7 0.00 0.00 0.00 65 1019.4
20260506213306 73 118 3.5 7.0 0.00 0.00 0.00 65 1019.7
20260506212804 74 151 5.2 8.7 0.00 0.00 0.00 64 1019.7
20260506212259 74 177 5.2 7.0 0.00 0.00 0.00 63 1019.6
20260506211754 73 229 4.3 6.1 0.00 0.00 0.00 64 1019.7
20260506211251 73 138 1.7 5.2 0.00 0.00 0.00 64 1019.6
20260506210748 71 118 3.5 7.8 0.00 0.00 0.00 66 1019.7
20260506210245 73 148 1.7 6.1 0.00 0.00 0.00 67 1019.6
20260506205742 73 142 2.6 5.2 0.00 0.00 0.00 65 1019.5
20260506205238 71 63 3.5 7.0 0.00 0.00 0.00 68 1019.8
20260506204735 71 148 0.0 8.7 0.00 0.00 0.00 68 1019.8
20260506204232 72 164 2.6 7.0 0.00 0.00 0.00 68 1019.8
20260506203730 71 149 2.6 7.0 0.00 0.00 0.00 69 1019.9
20260506203227 72 100 2.6 4.3 0.00 0.00 0.00 68 1020.0
20260506202725 72 124 1.7 7.8 0.00 0.00 0.00 67 1020.0
20260506202221 70 178 3.5 8.7 0.00 0.00 0.00 70 1020.1
20260506201718 69 168 2.6 7.0 0.00 0.00 0.00 71 1020.1
20260506201214 69 148 2.6 6.1 0.00 0.00 0.00 72 1020.2
20260506200711 72 118 0.9 5.2 0.00 0.00 0.00 68 1020.1
20260506200208 70 107 2.6 5.2 0.00 0.00 0.00 71 1020.2
20260506195704 70 82 2.6 6.1 0.00 0.00 0.00 71 1020.1
20260506195201 72 118 2.6 4.3 0.00 0.00 0.00 69 1020.3
20260506194658 70 143 3.5 7.8 0.00 0.00 0.00 71 1020.2
20260506194154 69 134 7.0 11.3 0.00 0.00 0.00 72 1020.4
20260506193652 69 133 2.6 6.1 0.00 0.00 0.00 74 1020.5
20260506193149 70 96 2.6 6.1 0.00 0.00 0.00 73 1020.5
20260506192646 69 157 3.5 5.2 0.00 0.00 0.00 72 1020.4
20260506192142 69 226 3.5 6.1 0.00 0.00 0.00 72 1020.6
20260506191639 69 164 1.7 6.1 0.00 0.00 0.00 71 1020.8
20260506191135 71 9 2.6 6.1 0.00 0.00 0.00 71 1020.8
20260506190633 69 176 2.6 7.0 0.00 0.00 0.00 73 1020.8
20260506190129 68 39 0.9 6.1 0.00 0.00 0.00 73 1021.1
20260506185626 71 133 2.6 5.2 0.00 0.00 0.00 70 1020.9
20260506185122 69 177 2.6 4.3 0.00 0.00 0.00 71 1020.9
20260506184620 71 105 3.5 5.2 0.00 0.00 0.00 70 1020.9
20260506184117 70 343 0.0 5.2 0.00 0.00 0.00 71 1020.9
20260506183614 68 157 1.7 4.3 0.00 0.00 0.00 72 1020.8
20260506183110 67 45 0.0 4.3 0.00 0.00 0.00 73 1021.1
20260506182608 68 190 4.3 5.2 0.00 0.00 0.00 73 1021.0
20260506182104 67 117 2.6 5.2 0.00 0.00 0.00 73 1021.1
20260506181602 66 109 5.2 6.1 0.00 0.00 0.00 74 1021.0
20260506181059 66 60 0.9 5.2 0.00 0.00 0.00 74 1021.0
20260506180555 64 300 0.0 5.2 0.00 0.00 0.00 76 1020.9
20260506180052 65 28 1.7 4.3 0.00 0.00 0.00 76 1021.0
20260506175548 66 117 1.7 2.6 0.00 0.00 0.00 73 1020.7
20260506175045 65 59 0.0 4.3 0.00 0.00 0.00 74 1020.9
20260506174544 66 47 2.6 6.1 0.00 0.00 0.00 75 1021.1
20260506174039 66 159 3.5 5.2 0.00 0.00 0.00 75 1021.2
20260506173537 64 72 0.9 2.6 0.00 0.00 0.00 76 1021.1
20260506173034 65 71 0.9 2.6 0.00 0.00 0.00 77 1021.0
20260506172531 63 39 1.7 6.1 0.00 0.00 0.00 78 1021.0
20260506172027 63 35 0.0 5.2 0.00 0.00 0.00 78 1020.9
20260506171525 63 64 0.9 4.3 0.00 0.00 0.00 78 1021.1
20260506171022 64 131 3.5 5.2 0.00 0.00 0.00 78 1021.2
20260506170520 63 12 1.7 5.2 0.00 0.00 0.00 76 1021.1
20260506170018 63 121 0.9 1.7 0.00 0.00 0.00 77 1021.0
20260506165516 63 143 2.6 4.3 0.00 0.00 0.00 79 1021.1
20260506165011 62 27 1.7 4.3 0.00 0.00 0.00 79 1021.1
20260506164508 63 81 1.7 1.7 0.00 0.00 0.00 77 1021.1
20260506164006 62 107 0.9 4.3 0.00 0.00 0.00 78 1021.2
20260506163501 63 224 2.6 2.6 0.00 0.00 0.00 77 1021.2
20260506162956 63 142 0.0 0.9 0.00 0.00 0.00 77 1021.1
20260506162454 62 350 0.0 0.9 0.00 0.00 0.00 78 1021.1
20260506161951 62 357 0.0 0.0 0.00 0.00 0.00 78 1021.3
20260506161449 61 33 0.0 2.6 0.00 0.00 0.00 79 1021.1
20260506160946 60 92 0.9 1.7 0.00 0.00 0.00 80 1021.2
20260506160443 61 152 2.6 2.6 0.00 0.00 0.00 80 1021.1
20260506155940 62 13 0.0 0.9 0.00 0.00 0.00 79 1021.0
20260506155438 62 13 0.0 0.0 0.00 0.00 0.00 79 1021.2
20260506153605 60 0 0.0 0.9 0.00 0.00 0.00 82 1021.1
20260506153102 60 15 0.0 0.0 0.00 0.00 0.00 82 1020.9
20260506152559 59 6 0.0 0.9 0.00 0.00 0.00 84 1021.2
20260506152057 59 8 0.0 0.9 0.00 0.00 0.00 84 1021.2
20260506151555 58 286 3.5 4.3 0.00 0.00 0.00 84 1020.9
20260506151052 57 347 2.6 2.6 0.00 0.00 0.00 85 1021.1
20260506150548 57 327 0.0 4.3 0.00 0.00 0.00 86 1021.1
20260506150045 57 345 0.0 1.7 0.00 0.00 0.00 86 1020.8
20260506145542 57 351 0.9 4.3 0.00 0.00 0.00 86 1021.0
20260506145039 56 354 0.9 2.6 0.00 0.00 0.00 86 1020.9
20260506144536 56 330 0.9 2.6 0.00 0.00 0.00 86 1020.8
20260506144033 56 351 0.0 0.9 0.00 0.00 0.00 87 1021.1
20260506143531 56 337 1.7 1.7 0.00 0.00 0.00 86 1021.0
20260506143029 55 311 1.7 5.2 0.00 0.00 0.00 86 1020.7
20260506142526 55 279 2.6 4.3 0.00 0.00 0.00 86 1020.7
20260506142024 55 19 1.7 2.6 0.00 0.00 0.00 86 1020.9
20260506141522 55 352 0.9 1.7 0.00 0.00 0.00 87 1020.8
20260506141020 55 354 0.0 1.7 0.00 0.00 0.00 87 1020.7
20260506140517 55 312 0.9 1.7 0.00 0.00 0.00 87 1020.5
20260506140015 55 299 2.6 7.0 0.00 0.00 0.00 87 1020.7
20260506135511 55 331 0.9 1.7 0.00 0.00 0.00 87 1020.4
20260506135007 55 351 0.0 1.7 0.00 0.00 0.00 87 1020.6
20260506134503 55 347 0.9 1.7 0.00 0.00 0.00 87 1020.5
20260506134000 55 309 2.6 2.6 0.00 0.00 0.00 87 1020.5
20260506133457 55 337 0.9 2.6 0.00 0.00 0.00 87 1020.5
20260506132954 55 327 3.5 4.3 0.00 0.00 0.00 87 1020.5
20260506132451 55 280 3.5 5.2 0.00 0.00 0.00 87 1020.4
20260506131948 55 348 0.0 1.7 0.00 0.00 0.00 87 1020.5
20260506131445 55 283 2.6 2.6 0.00 0.00 0.00 87 1020.3
20260506130942 55 348 0.0 1.7 0.00 0.00 0.00 87 1020.6
20260506130438 55 349 0.9 1.7 0.00 0.00 0.00 87 1020.3
20260506125936 55 344 0.9 5.2 0.00 0.00 0.00 87 1020.3
20260506125434 55 320 0.9 2.6 0.00 0.00 0.00 87 1020.3
20260506124932 55 358 0.9 1.7 0.00 0.00 0.00 87 1020.4
20260506124429 55 310 1.7 1.7 0.00 0.00 0.00 87 1020.2
20260506123927 55 336 0.9 1.7 0.00 0.00 0.00 87 1020.1
20260506123425 55 342 1.7 2.6 0.00 0.00 0.00 86 1020.3
20260506122922 55 275 3.5 5.2 0.00 0.00 0.00 86 1020.3
20260506122419 55 309 2.6 5.2 0.00 0.00 0.00 86 1020.1
20260506121918 55 289 4.3 5.2 0.00 0.00 0.00 86 1020.2
20260506121414 55 318 0.9 1.7 0.00 0.00 0.00 86 1020.2
20260506120911 55 355 0.9 1.7 0.00 0.00 0.00 86 1020.0
20260506120409 55 289 4.3 5.2 0.00 0.00 0.00 86 1020.1
20260506115906 55 284 1.7 2.6 0.00 0.00 0.00 86 1020.0
20260506115404 55 8 0.9 1.7 0.00 0.00 0.00 86 1020.0
20260506114902 55 328 2.6 6.1 0.00 0.00 0.00 86 1019.9
20260506114359 55 338 1.7 5.2 0.00 0.00 0.00 86 1020.0
20260506113858 55 355 2.6 2.6 0.00 0.00 0.00 86 1019.9
20260506113355 55 336 1.7 6.1 0.00 0.00 0.00 86 1019.9
20260506112851 55 318 0.9 2.6 0.00 0.00 0.00 86 1019.9
20260506112348 55 358 0.9 5.2 0.00 0.00 0.00 86 1019.8
20260506111845 55 294 2.6 2.6 0.00 0.00 0.00 86 1019.7
20260506111344 55 306 2.6 5.2 0.00 0.00 0.00 86 1019.7
20260506110841 55 294 3.5 6.1 0.00 0.00 0.00 86 1019.7
20260506110338 55 322 2.6 2.6 0.00 0.00 0.00 86 1019.5
20260506105835 55 313 1.7 1.7 0.00 0.00 0.00 86 1019.7
20260506105331 55 357 0.9 1.7 0.00 0.00 0.00 86 1019.8
20260506104829 55 350 0.9 0.9 0.00 0.00 0.00 86 1019.5
20260506104326 55 354 0.0 0.9 0.00 0.00 0.00 86 1019.6
20260506103824 55 359 0.0 0.9 0.00 0.00 0.00 86 1019.5
20260506103321 55 321 0.9 4.3 0.00 0.00 0.00 86 1019.7
20260506102819 55 299 2.6 2.6 0.00 0.00 0.00 86 1019.6
20260506102316 55 303 2.6 2.6 0.00 0.00 0.00 86 1019.4
20260506101814 55 0 0.0 4.3 0.00 0.00 0.00 86 1019.6
20260506101309 55 0 0.9 5.2 0.00 0.00 0.00 86 1019.6
20260506100808 55 354 1.7 1.7 0.00 0.00 0.00 86 1019.5
20260506100306 55 7 0.9 2.6 0.00 0.00 0.00 86 1019.4
20260506095804 55 343 0.9 4.3 0.00 0.00 0.00 86 1019.5
20260506095300 55 351 0.9 2.6 0.00 0.00 0.00 86 1019.5
20260506094757 55 311 2.6 2.6 0.00 0.00 0.00 86 1019.5
20260506094255 55 340 0.9 0.9 0.00 0.00 0.00 86 1019.6
20260506093754 55 343 0.9 0.9 0.00 0.00 0.00 86 1019.5
20260506093250 55 352 0.0 1.7 0.00 0.00 0.00 86 1019.6
20260506092748 55 357 0.0 0.9 0.00 0.00 0.00 86 1019.6
20260506092246 55 358 0.0 0.0 0.00 0.00 0.00 86 1019.7
20260506091743 55 356 0.0 1.7 0.00 0.00 0.00 86 1019.5
20260506091240 55 354 0.0 0.9 0.00 0.00 0.00 86 1019.5
20260506090738 55 336 0.9 1.7 0.00 0.00 0.00 86 1019.6
20260506090235 55 312 0.9 1.7 0.00 0.00 0.00 86 1019.3
20260506085732 55 309 0.9 1.7 0.00 0.00 0.00 86 1019.3
20260506085228 55 354 0.0 4.3 0.00 0.00 0.00 86 1019.7
20260506084725 55 354 0.0 4.3 0.00 0.00 0.00 86 1019.7
20260506084221 55 316 1.7 4.3 0.00 0.00 0.00 86 1019.3
20260506083718 55 8 0.9 2.6 0.00 0.00 0.00 86 1019.5
20260506083216 55 288 1.7 2.6 0.00 0.00 0.00 86 1019.6
20260506082713 55 292 2.6 4.3 0.00 0.00 0.00 86 1019.6
20260506082208 55 328 0.0 0.9 0.00 0.00 0.00 86 1019.3
20260506081706 55 324 1.7 2.6 0.00 0.00 0.00 86 1019.6
20260506081204 55 339 0.9 2.6 0.00 0.00 0.00 86 1019.3
20260506080701 55 338 0.9 2.6 0.00 0.00 0.00 86 1019.3
20260506080158 55 291 2.6 4.3 0.00 0.00 0.00 86 1019.4